Regional Weather Roundup
Issued by NWS

Home | Current Version | Previous Version | Graphics & Text | Print | Product List | Glossary Off
Versions: 1 2 3 4 5 6 7 8 9 10 11 12 13 14 15 16 17 18 19 20 21 22 23 24 25 26 27 28 29 30 31 32 33 34 35 36 37 38 39 40 41 42 43 44 45 46 47 48 49 50

000
ASUS43 KTOP 140608
RWRKS

WEATHER ROUNDUP FOR KANSAS
NATIONAL WEATHER SERVICE GOODLAND KS
100 AM CDT MON JUL 14 2014

NOTE:  "FAIR" INDICATES FEW OR NO CLOUDS BELOW 12,000 FEET WITH NO
SIGNIFICANT WEATHER AND/OR OBSTRUCTIONS TO VISIBILITY.

KSZ001>006-013>018-027>032-041>047-140700-
NORTHWEST KANSAS

CITY           SKY/WX    TMP DP  RH WIND       PRES   REMARKS
GOODLAND       PTCLDY    65  61  87 W8        30.19R
6HR MIN TEMP:  64; 6HR MAX TEMP:  69; 6HR PCP:  0.09;

HAYS           MOCLDY    73  63  68 SW5       30.08F
HILL CITY      PTCLDY    70  64  81 W5        30.09F
6HR MIN TEMP:  70; 6HR MAX TEMP:  88;

RUSSELL        MOCLDY    73  65  75 SW6       30.06F
6HR MIN TEMP:  73; 6HR MAX TEMP:  88;

$$

KSZ061>065-074>080-084>089-140700-
SOUTHWEST KANSAS

CITY           SKY/WX    TMP DP  RH WIND       PRES   REMARKS
DODGE CITY     CLOUDY    73  62  68 S5        30.11F
6HR MIN TEMP:  71; 6HR MAX TEMP:  86;

ELKHART          N/A     71  65  81 SW3         N/A
GARDEN CITY    CLOUDY    72  61  68 W6        30.12F
6HR MIN TEMP:  70; 6HR MAX TEMP:  87;

GREAT BEND     MOCLDY    72  66  83 SW3       30.06F
LIBERAL        MOCLDY    72  57  60 SW3       30.17S
PRATT          CLOUDY    73  68  83 NW3       30.09S
$$

KSZ066>073-081>083-090>101-140700-
SOUTHEAST KANSAS

CITY           SKY/WX    TMP DP  RH WIND       PRES   REMARKS
CHANUTE        CLEAR     72  69  90 SE5       30.01R
6HR MIN TEMP:  72; 6HR MAX TEMP:  85;

COFFEYVILLE    PTCLDY    75  72  90 N6        29.97F
6HR MIN TEMP:  75; 6HR MAX TEMP:  90;

HUTCHINSON     MOCLDY    69  65  86 CALM      30.05F
6HR MIN TEMP:  69; 6HR MAX TEMP:  88;

MEDICINE LODGE   N/A     75  70  84 CALM      30.04F
NEWTON         MOCLDY    72  63  73 CALM      30.07F
PARSONS        PTCLDY    74  71  91 CALM      30.00S
6HR MIN TEMP:  74; 6HR MAX TEMP:  89;

WICHITA INTL   MOCLDY    77  69  76 NW3       30.03S
6HR MIN TEMP:  74; 6HR MAX TEMP:  85;

WICHITA JABRA  PTCLDY    72  68  87 CALM      30.04S
6HR MIN TEMP:  72; 6HR MAX TEMP:  84;

WICHITA MCCONL MOCLDY    76  72  87 N5        30.04S
WINFIELD       CLEAR     75  72  90 N8        30.03R
6HR MIN TEMP:  73; 6HR MAX TEMP:  86;

$$

KSZ007>012-019>026-033>040-048>060-102>105-140700-
NORTHEAST KANSAS

CITY           SKY/WX    TMP DP  RH WIND       PRES   REMARKS
CONCORDIA      CLEAR     72  62  71 SW6       30.02F
6HR MIN TEMP:  71; 6HR MAX TEMP:  87;

EMPORIA        PTCLDY    66  64  93 W3        30.02S
6HR MIN TEMP:  66; 6HR MAX TEMP:  85;

LAWRENCE       CLEAR     70  67  90 CALM      29.99S
6HR MIN TEMP:  68; 6HR MAX TEMP:  86;

MANHATTAN      PTCLDY    70  67  90 CALM      30.01S
6HR MIN TEMP:  69; 6HR MAX TEMP:  88;

MARYSVILLE     CLEAR     70  68  94 CALM      30.01S
OLATHE IND     CLEAR     71  68  90 NW3       30.00S
6HR MIN TEMP:  70; 6HR MAX TEMP:  84;

OLATHE EXE     CLEAR     73  67  81 NW6       29.99S
6HR MIN TEMP:  73; 6HR MAX TEMP:  85;

SALINA         PTCLDY    72  62  71 S3        30.04S
6HR MIN TEMP:  70; 6HR MAX TEMP:  89;

TOPEKA BILLARD CLEAR     73  70  90 CALM      30.00R
6HR MIN TEMP:  73; 6HR MAX TEMP:  86;

TOPEKA FORBES  CLEAR     70  67  90 CALM      30.00S
6HR MIN TEMP:  70; 6HR MAX TEMP:  86;

$$



USA.gov is the U.S. government's official web portal to all federal, state and local government web resources and services.